Wind_Speed
18 17 19 19 23 25 27 28 29 31 34 36 35 36 36 37 37 39 40 42 47 43 40 43 44 41 39 36 37 34 33 25 23 21 12 11 10 15 17 12 9 23 28 29 26
18 20 22 25 27 28 29 30 30 32 37 39 37 37 40 42 42 44 48 51 52 49 49 46 45 45 46 38 36 36 33 28 23 22 15 10 12 8 18 22 19 27 27 31 30
26 28 27 28 32 33 34 35 36 38 38 39 41 43 48 50 55 57 58 58 56 55 51 49 47 47 46 39 35 36 33 30 25 23 19 12 9 11 15 21 25 22 33 31 36
18 19 22 25 29 33 42 41 41 42 44 45 46 47 50 53 55 54 52 53 49 47 44 45 44 46 41 39 36 36 34 34 29 26 24 19 15 11 12 18 27 27 24 24 31
24 24 25 28 27 29 29 30 35 36 33 33 34 37 38 40 38 39 40 40 37 38 38 39 41 43 39 38 36 37 36 35 36 31 28 26 23 20 15 14 18 21 28 26 31
24 26 28 28 29 30 31 34 34 35 37 39 41 41 42 43 42 43 40 39 39 42 42 40 38 40 44 37 36 36 37 37 40 38 34 30 28 25 19 18 16 17 17 19 22
16 17 19 22 25 25 26 26 30 31 33 37 40 44 47 47 47 46 44 46 47 47 46 45 45 40 42 41 38 40 40 42 43 44 41 34 32 29 23 20 21 20 20 21 21
15 12 12 9 8 14 18 21 22 21 26 33 33 32 41 48 51 50 51 52 52 52 50 46 45 43 41 42 41 39 40 45 48 43 46 40 40 33 29 25 24 22 21 21 22
15 16 16 18 19 20 25 26 25 24 30 35 39 33 37 41 45 48 51 51 52 52 51 46 41 40 41 40 44 43 38 41 45 46 51 48 46 44 35 31 29 28 27 25 24
14 15 19 27 26 25 25 23 23 33 33 35 39 39 41 45 43 43 42 41 43 48 48 47 43 39 41 40 41 46 41 40 41 47 53 55 51 50 44 39 34 34 34 32 31
17 23 31 31 31 30 33 32 35 34 38 40 38 36 37 48 47 48 46 42 39 36 40 41 42 48 44 40 42 46 48 44 46 47 47 56 58 57 53 44 44 43 38 37 35
31 34 32 34 36 36 36 34 30 39 43 43 44 47 51 53 48 48 52 49 46 45 40 37 40 45 46 48 45 46 49 48 50 52 48 49 57 64 59 55 53 48 46 51 43
39 42 43 41 39 41 40 39 35 37 38 50 50 54 57 53 53 52 48 52 50 47 47 43 45 45 45 46 51 50 48 48 52 56 52 50 51 64 67 62 60 59 58 56 58
47 44 47 47 43 44 47 46 41 39 40 48 51 57 56 55 54 52 52 52 53 53 49 46 52 51 50 48 50 47 55 50 50 56 56 56 44 53 67 71 67 65 68 65 61
47 47 50 49 46 49 53 45 41 40 46 48 53 57 57 55 55 55 53 56 57 53 55 56 55 55 56 57 54 51 54 56 55 55 57 54 60 47 65 75 76 75 69 70 67
45 51 57 54 52 56 55 50 44 55 56 64 62 62 60 58 57 58 57 57 58 59 56 57 57 59 60 62 63 59 60 58 60 60 54 58 61 41 56 73 80 81 77 74 71
50 59 59 59 60 59 60 59 55 61 62 69 69 66 64 64 62 60 58 62 60 57 55 57 56 58 61 66 68 68 67 64 63 63 62 59 56 51 51 69 81 82 81 78 74
63 65 62 64 67 62 56 57 61 70 72 75 73 70 67 68 67 62 61 60 66 66 58 54 54 61 64 66 67 70 71 72 73 67 66 63 53 52 53 62 75 83 83 81 79
65 67 70 70 68 63 64 66 73 76 78 82 80 77 73 70 69 70 68 67 69 70 69 66 59 61 64 66 68 68 71 78 74 67 70 64 58 52 53 58 68 79 84 84 84
72 72 73 72 71 70 71 73 75 81 87 85 81 81 78 80 82 81 75 77 77 77 74 74 67 69 71 70 70 71 71 76 81 72 66 66 64 59 59 60 66 73 81 86 88
76 75 76 77 77 77 81 81 86 90 91 90 86 87 88 88 88 86 86 86 87 85 85 84 78 73 74 79 83 82 79 82 83 78 72 61 61 65 66 67 67 71 78 83 85
80 82 84 85 83 83 87 88 91 94 93 92 93 97 100 97 94 94 92 92 89 92 92 94 91 79 79 82 84 87 88 91 91 80 78 75 52 60 67 74 77 76 76 83 85
89 89 89 89 86 86 89 91 95 96 98 102 107 106 104 105 104 100 98 98 98 96 97 97 95 88 83 85 92 91 92 93 94 91 77 86 64 73 74 76 83 85 82 81 85
97 97 97 98 101 101 104 105 107 108 110 111 111 111 109 108 106 105 102 103 105 102 101 98 97 100 85 83 90 96 92 94 96 96 91 87 83 79 85 82 85 89 89 88 87
108 108 111 110 112 112 111 110 112 111 111 111 110 109 108 107 110 108 104 105 107 104 104 101 92 96 87 85 88 89 90 92 99 101 102 86 95 85 93 89 88 90 93 94 94
119 119 121 119 123 120 120 115 115 115 114 115 114 114 113 118 111 106 107 108 101 103 104 99 91 94 80 88 94 88 88 93 98 102 105 101 85 96 93 92 93 94 94 94 94
124 129 125 123 124 125 121 121 117 120 119 120 118 116 118 115 107 105 107 101 94 92 98 93 95 92 80 89 87 80 89 94 95 101 101 99 96 94 96 94 96 96 95 96 95
Wind_Direction
249 257 255 259 262 264 264 265 266 271 273 271 273 275 275 276 277 280 276 278 290 294 293 294 288 287 292 291 296 290 288 288 295 294 304 270 265 224 202 224 234 213 201 207 195
261 262 274 275 274 272 274 271 272 274 279 280 278 281 280 277 278 277 276 288 293 291 293 294 289 284 287 286 289 284 283 282 286 288 286 284 248 239 218 218 226 205 202 211 211
268 274 279 273 269 271 272 274 276 277 278 278 276 278 280 283 283 286 292 295 294 294 294 294 288 286 284 283 281 275 276 277 278 281 275 272 259 236 222 207 211 205 212 217 220
288 287 287 285 281 275 267 266 269 268 271 275 281 282 283 286 290 292 290 289 288 287 291 295 292 282 283 282 277 269 268 271 272 274 271 263 259 234 218 212 211 227 214 234 226
284 282 280 281 284 286 286 286 285 286 290 288 285 284 285 287 289 292 291 291 292 293 291 289 290 286 280 276 273 265 262 265 267 266 267 260 259 249 233 217 202 212 219 221 216
285 288 290 289 289 288 282 284 287 287 288 288 290 288 288 286 286 287 286 289 292 292 292 293 294 288 274 271 269 265 261 260 262 261 261 257 253 244 238 234 230 226 225 221 222
292 297 298 294 295 299 296 297 293 295 293 291 288 285 285 284 283 285 282 285 287 288 289 293 294 292 280 267 269 269 266 258 258 257 256 255 246 241 231 237 236 234 234 238 238
311 311 315 329 357 339 338 335 331 317 313 318 309 298 283 280 278 279 280 281 282 283 285 288 291 293 284 269 265 267 266 261 262 256 253 253 246 239 231 226 232 235 235 238 241
313 308 311 324 312 318 333 337 334 339 344 343 341 312 299 286 280 280 278 278 279 281 281 282 286 288 282 272 261 264 264 270 260 254 246 244 245 246 230 230 233 233 242 244 249
319 326 329 337 321 324 322 327 344 342 339 339 339 338 329 306 292 286 284 283 282 278 281 281 278 281 278 276 263 262 263 261 258 256 248 243 241 246 241 234 237 244 244 248 249
327 319 326 311 325 317 317 315 321 327 332 331 329 326 322 324 306 294 291 287 291 288 282 278 280 272 274 275 271 264 261 262 256 255 254 246 240 244 246 240 242 245 249 251 249
334 330 328 328 323 320 313 309 303 309 312 319 322 326 323 323 315 308 293 292 292 289 284 282 284 277 273 271 271 271 266 266 257 257 255 251 244 245 243 244 248 247 247 252 255
321 321 327 321 315 323 312 306 306 303 309 304 309 314 324 324 322 313 306 291 288 290 288 285 284 284 278 275 268 271 270 268 263 257 254 252 242 244 246 241 246 252 254 254 254
308 309 315 319 313 314 313 301 293 311 313 301 304 315 322 319 314 315 310 304 296 286 287 287 285 283 282 287 276 274 269 266 262 259 259 258 245 250 243 244 242 247 252 253 255
302 306 312 312 308 319 314 302 300 312 318 317 313 318 318 316 314 309 304 298 293 293 287 285 285 285 285 280 280 277 276 265 265 261 258 262 257 243 248 240 243 244 246 251 254
299 310 313 314 310 314 312 302 300 310 308 315 315 316 315 312 313 308 307 299 295 291 295 288 289 286 280 281 280 277 278 274 265 262 262 260 262 260 249 241 240 242 245 246 250
301 308 310 311 310 309 305 303 302 304 305 314 313 313 314 310 310 306 304 305 300 294 295 292 288 289 289 285 280 278 281 277 270 266 259 259 264 267 251 238 236 240 244 246 247
304 306 305 306 308 307 305 302 298 303 306 311 311 310 308 307 309 301 299 298 299 297 291 288 285 287 285 287 289 283 280 280 273 265 261 261 262 260 260 245 237 237 241 245 247
303 303 304 305 307 305 304 303 299 299 306 309 308 307 306 301 299 303 297 294 296 294 291 289 287 281 281 283 283 283 284 279 278 271 260 258 259 257 260 254 244 238 238 243 246
302 302 303 305 303 299 301 300 298 299 302 305 305 303 302 301 303 302 298 294 294 292 291 285 285 284 279 279 278 277 277 279 279 276 269 260 255 256 256 256 253 247 243 241 243
302 301 303 302 302 300 298 297 301 302 301 299 299 299 299 299 299 300 301 297 294 293 289 289 285 283 279 277 277 278 276 276 275 276 273 268 258 255 255 256 254 252 249 247 246
301 302 303 302 302 300 297 298 297 297 296 297 296 298 300 298 298 297 297 295 292 290 293 291 288 287 278 274 271 272 274 273 274 274 272 270 259 266 260 257 254 253 251 250 250
304 304 304 303 299 298 296 296 296 295 294 296 297 298 296 295 295 296 294 293 293 291 291 288 288 286 281 274 270 269 267 271 269 271 271 268 268 266 263 261 255 252 250 250 250
303 303 302 302 302 300 300 299 297 294 294 296 297 295 295 295 293 293 291 293 294 291 290 289 287 286 283 274 269 265 267 267 269 268 268 269 266 265 261 258 255 254 251 250 249
301 300 301 302 302 301 299 299 299 294 293 294 295 294 294 296 294 292 291 294 291 289 289 289 286 283 281 275 271 267 264 263 265 265 264 262 265 262 260 259 254 251 251 250 251
301 301 300 301 301 301 299 297 295 296 296 296 294 295 296 296 294 293 292 291 288 288 287 285 284 280 277 273 270 270 268 265 263 263 263 263 259 260 259 259 256 254 251 250 253
300 301 299 300 299 300 296 296 296 296 296 297 296 297 296 293 291 291 291 289 288 285 284 284 282 279 278 272 272 273 267 266 264 264 264 263 262 258 257 255 252 253 253 253 251
Height
10785 10785 10786 10786 10787 10787 10786 10785 10784 10782 10781 10779 10778 10776 10774 10773 10772 10770 10768 10767 10765 10764 10762 10761 10758 10755 10754 10750 10748 10746 10744 10741 10739 10737 10733 10731 10729 10728 10727 10726 10726 10727 10731 10733 10736
10782 10783 10783 10783 10782 10781 10781 10779 10778 10777 10776 10774 10772 10769 10769 10767 10766 10763 10762 10759 10757 10755 10753 10751 10749 10747 10745 10744 10742 10740 10738 10736 10736 10734 10731 10729 10727 10725 10724 10724 10724 10725 10727 10730 10733
10777 10777 10777 10777 10776 10775 10775 10774 10772 10771 10769 10767 10765 10764 10762 10760 10758 10756 10753 10750 10748 10746 10743 10741 10739 10738 10736 10735 10736 10733 10733 10730 10731 10730 10729 10727 10726 10723 10721 10722 10723 10723 10724 10726 10728
10775 10774 10773 10772 10771 10770 10769 10767 10765 10763 10761 10759 10757 10755 10753 10751 10750 10746 10744 10741 10739 10736 10734 10732 10731 10729 10727 10727 10728 10726 10727 10725 10725 10725 10725 10724 10723 10722 10720 10719 10720 10721 10721 10722 10723
10769 10769 10768 10767 10766 10764 10762 10760 10759 10757 10754 10752 10749 10747 10745 10743 10741 10737 10735 10733 10730 10728 10725 10723 10722 10720 10719 10719 10718 10718 10720 10719 10719 10719 10720 10720 10719 10718 10717 10716 10716 10716 10718 10718 10719
10764 10763 10762 10760 10760 10759 10758 10756 10754 10751 10749 10746 10743 10740 10737 10736 10733 10731 10727 10725 10722 10720 10718 10715 10714 10711 10709 10709 10710 10710 10711 10712 10711 10712 10713 10715 10714 10713 10714 10711 10711 10712 10712 10713 10714
10760 10758 10757 10755 10754 10752 10751 10749 10747 10745 10742 10739 10735 10732 10729 10726 10724 10721 10718 10715 10713 10710 10708 10705 10703 10702 10699 10699 10700 10703 10704 10702 10700 10703 10705 10709 10708 10709 10709 10708 10707 10707 10708 10708 10708
10757 10755 10753 10751 10750 10749 10747 10744 10741 10738 10735 10732 10727 10723 10719 10716 10714 10712 10709 10706 10702 10699 10698 10696 10693 10691 10689 10689 10690 10692 10693 10691 10688 10695 10698 10702 10698 10703 10703 10703 10703 10703 10703 10703 10703
10754 10753 10752 10751 10748 10745 10742 10739 10734 10731 10728 10724 10720 10716 10711 10706 10703 10700 10697 10694 10691 10689 10687 10686 10684 10679 10677 10677 10679 10679 10684 10682 10682 10683 10685 10689 10690 10692 10696 10696 10697 10697 10697 10696 10697
10752 10751 10749 10746 10744 10740 10737 10733 10729 10726 10721 10716 10712 10708 10703 10699 10694 10689 10686 10684 10681 10678 10676 10676 10674 10669 10664 10668 10669 10668 10670 10670 10672 10668 10672 10678 10682 10682 10686 10688 10690 10689 10689 10689 10689
10747 10746 10743 10739 10738 10734 10730 10727 10724 10718 10711 10707 10705 10700 10694 10688 10683 10679 10676 10673 10670 10668 10665 10664 10662 10655 10657 10658 10657 10658 10659 10660 10657 10656 10661 10665 10671 10670 10674 10681 10678 10679 10680 10680 10679
10740 10739 10735 10732 10729 10725 10723 10719 10716 10712 10704 10699 10693 10692 10687 10680 10675 10668 10664 10661 10658 10656 10655 10655 10649 10645 10645 10645 10645 10643 10645 10647 10647 10643 10649 10653 10660 10660 10663 10667 10665 10669 10670 10666 10668
10732 10728 10726 10724 10720 10716 10712 10709 10706 10703 10701 10686 10683 10678 10676 10671 10666 10660 10655 10650 10648 10644 10643 10644 10636 10634 10632 10630 10629 10632 10630 10629 10633 10630 10633 10638 10647 10647 10649 10654 10655 10655 10654 10656 10653
10722 10720 10717 10713 10710 10707 10702 10697 10694 10692 10691 10684 10678 10670 10665 10659 10653 10648 10644 10640 10635 10632 10630 10630 10622 10622 10620 10618 10614 10618 10611 10616 10616 10617 10621 10622 10636 10638 10635 10636 10640 10639 10635 10636 10641
10713 10709 10705 10702 10698 10695 10689 10684 10681 10679 10677 10675 10668 10661 10655 10649 10643 10637 10632 10627 10624 10620 10617 10613 10611 10609 10606 10602 10601 10602 10597 10598 10598 10600 10604 10612 10601 10626 10614 10619 10617 10614 10619 10620 10623
10702 10697 10692 10688 10685 10681 10676 10672 10669 10664 10661 10659 10654 10648 10640 10635 10630 10625 10619 10614 10609 10607 10605 10602 10598 10596 10590 10587 10583 10583 10581 10580 10580 10582 10590 10587 10584 10616 10603 10599 10597 10593 10596 10600 10606
10690 10686 10679 10675 10672 10667 10663 10658 10655 10649 10641 10644 10638 10632 10625 10618 10615 10610 10605 10598 10591 10592 10591 10590 10586 10580 10575 10572 10566 10564 10563 10562 10562 10561 10570 10571 10575 10582 10579 10569 10573 10574 10576 10580 10588
10678 10672 10665 10662 10657 10652 10648 10643 10637 10634 10629 10624 10621 10615 10609 10600 10599 10594 10589 10583 10574 10572 10575 10576 10577 10565 10562 10554 10551 10548 10544 10541 10535 10545 10551 10555 10563 10563 10558 10553 10553 10558 10559 10562 10567
10663 10657 10649 10643 10640 10634 10633 10630 10620 10614 10609 10605 10602 10597 10593 10583 10577 10575 10571 10565 10558 10553 10550 10551 10557 10554 10547 10539 10533 10534 10526 10516 10514 10521 10528 10539 10544 10545 10541 10536 10534 10537 10542 10545 10546
10647 10640 10633 10624 10620 10617 10613 10608 10600 10592 10587 10582 10582 10576 10569 10563 10558 10553 10550 10544 10537 10532 10528 10528 10535 10531 10526 10520 10515 10511 10508 10500 10492 10496 10503 10517 10524 10525 10520 10518 10518 10521 10520 10523 10526
10629 10623 10616 10607 10601 10596 10593 10588 10581 10568 10564 10561 10557 10551 10548 10544 10536 10531 10527 10520 10512 10508 10500 10500 10504 10517 10506 10501 10490 10485 10486 10478 10472 10475 10480 10490 10505 10504 10503 10499 10496 10499 10501 10503 10505
10608 10603 10597 10590 10583 10577 10571 10568 10559 10550 10541 10538 10532 10525 10520 10516 10512 10505 10500 10491 10489 10483 10478 10467 10469 10483 10482 10476 10468 10461 10458 10453 10444 10461 10460 10459 10488 10486 10482 10477 10471 10473 10479 10485 10490
10587 10581 10571 10568 10563 10556 10550 10544 10536 10527 10516 10511 10504 10498 10492 10487 10480 10481 10473 10464 10459 10452 10446 10441 10437 10446 10454 10447 10439 10432 10431 10427 10424 10425 10445 10426 10462 10459 10453 10451 10449 10450 10455 10461 10467
10564 10558 10551 10546 10539 10533 10526 10520 10510 10502 10492 10480 10476 10465 10459 10456 10451 10449 10444 10438 10429 10418 10411 10408 10408 10402 10418 10414 10401 10401 10400 10400 10393 10397 10408 10410 10417 10426 10421 10425 10420 10422 10430 10435 10439
10539 10533 10527 10523 10512 10505 10495 10490 10477 10468 10461 10452 10448 10434 10429 10427 10421 10415 10410 10407 10398 10385 10375 10372 10380 10366 10379 10379 10365 10365 10374 10374 10361 10366 10359 10390 10373 10400 10388 10393 10394 10396 10401 10408 10414
10508 10501 10498 10494 10481 10473 10463 10455 10447 10435 10429 10423 10413 10404 10397 10391 10383 10386 10377 10369 10367 10353 10336 10336 10341 10333 10352 10339 10328 10334 10343 10338 10332 10330 10324 10333 10358 10347 10356 10363 10367 10368 10373 10380 10386
10478 10468 10465 10466 10447 10439 10427 10418 10412 10402 10398 10386 10377 10374 10368 10356 10351 10350 10344 10338 10333 10326 10304 10307 10297 10297 10318 10301 10300 10312 10303 10300 10304 10296 10296 10303 10311 10321 10319 10327 10332 10337 10344 10350 10355